Regional Weather Roundup
Issued by NWS

Home | Current Version | Previous Version | Graphics & Text | Print | Product List | Glossary On
Versions: 1 2 3 4 5 6 7 8 9 10 11 12 13 14 15 16 17 18 19 20 21 22 23 24 25 26 27 28 29 30 31 32 33 34 35 36 37 38 39 40 41 42 43 44 45 46 47 48 49 50
000
ASUS45 KSLC 242010
RWRUT

UTAH REGIONAL WEATHER ROUNDUP
NATIONAL WEATHER SERVICE SALT LAKE CITY UT
200 PM MDT THU JUL 24 2014

UTZ001>011-023>025-242100-

NORTHERN UTAH

CITY           SKY/WX    TMP DP  RH WIND       PRES   REMARKS
HILL AFB       SUNNY     89  41  19 W9        30.09S
LOGAN          SUNNY     89  37  16 N3        30.06
OGDEN          SUNNY     90  37  15 MISG      30.06S
PROVO AIRPORT  NOT AVBL
SALT LAKE CITY MOSUNNY   91  40  16 NW13G25   30.03S
VERNAL         SUNNY     88  48  25 SW9       30.14F
WENDOVER       SUNNY     91  32  12 E13       30.05F
HEBER CITY     SUNNY     91  34  13 SW23G29   30.12F
WEST JORDAN    SUNNY     90  54  29 NW20G25   30.06F

$$

UTZ012>022-026-027-242100-

SOUTHERN UTAH

CITY           SKY/WX    TMP DP  RH WIND       PRES   REMARKS
BRYCE CANYON   PTSUNNY   80  36  20 W12       30.37F
CEDAR CITY     SUNNY     93  28  10 SW18G28   30.16F
MILFORD        SUNNY     96  26   8 S15G32    30.07F HX  90
MOAB/CYNLANDS  SUNNY     93  47  20 SW13G18   30.08F
PRICE          MOSUNNY   88  47  24 VRB7      30.19F
ST GEORGE      CLEAR    102  41  12 SE3       29.94F HX  97

$$

REGIONAL REPORTS     COLORADO/ARIZONA

CITY           SKY/WX    TMP DP  RH WIND       PRES   REMARKS
CRAIG, CO      PTSUNNY   76  52  43 W18       30.23F
GRAND JUNCTION PTSUNNY   87  52  29 NW7       30.13F
RIFLE          PTSUNNY   86  48  26 N5        30.19F
MONTROSE       CLOUDY    82  52  35 SE7       30.24F
CORTEZ         PTSUNNY   88  49  25 NW8       30.24F
PAGE, AZ       MOSUNNY   96  46  18 VRB5      30.08F HX  92
GRAND CANYON   CLOUDY    83  47  28 S8        30.31F
KINGMAN        SUNNY    102  41  12 W10G20    30.00F HX  97
FLAGSTAFF      PTSUNNY   80  49  33 S8        30.34F

$$

REGIONAL REPORTS    NEVADA/IDAHO/WYOMING

CITY           SKY/WX    TMP DP  RH WIND       PRES   REMARKS
LAS VEGAS, NV  MOSUNNY  109  31   7 S17G24    29.81F HX 101
ELY            SUNNY     92  14   5 S22G30    30.17F
ELKO           SUNNY     84  28  13 W10G21    30.15F
POCATELLO, ID  SUNNY     79  39  23 W21G32    30.16S
BURLEY         SUNNY     72  43  35 W15G23    30.17F
EVANSTON, WY   MOSUNNY   86  37  17 SW23G35   30.23F
ROCK SPRINGS   PTSUNNY   86  39  19 SW14G28   30.18F

$$


USA.gov is the U.S. government's official web portal to all federal, state and local government web resources and services.